Dewpoint
56 57 57 57 56 56 56 56 56 56 56 56 57 57 58 59 59 59 61 61 62 62 62 61 61 62 62 61 61 61 61 61 61 61 61 61 59 60 61 61 60 60 61 61 62 62 62 61 61 61 62 62 62 62 62 61 62 61 61 61 60 60 59 58 56 56 56 59 60 60 61 61 61 61 61 61 60 60 60 60 60 58 58 57 55
56 55 55 55 55 55 55 55 55 55 54 54 55 55 55 57 57 57 59 61 61 61 60 59 58 59 59 58 58 58 60 61 61 61 60 60 59 59 59 58 59 60 60 60 61 61 61 61 61 61 62 61 62 62 62 61 61 61 61 60 60 59 60 58 57 57 56 58 59 60 61 61 60 61 61 60 59 59 60 61 60 60 59 59 57
55 54 53 53 53 54 54 54 53 53 53 53 53 54 54 55 56 56 57 58 59 60 58 57 56 55 55 55 55 55 55 57 61 61 60 60 60 59 60 60 60 59 59 59 60 60 60 60 60 61 62 61 61 60 61 61 61 61 60 60 60 60 60 60 58 56 57 57 58 59 60 61 60 60 61 61 60 60 60 61 60 60 60 59 59
53 53 53 53 53 53 52 52 52 52 52 52 52 53 53 54 54 54 56 56 55 55 55 55 54 54 53 53 53 53 54 55 56 60 61 60 60 60 60 59 60 60 60 60 60 60 60 59 60 60 60 60 59 60 60 60 60 60 60 60 60 60 59 59 59 57 57 57 58 58 60 60 60 61 61 61 60 60 60 60 61 60 60 59 59
52 52 52 52 52 52 52 52 51 51 51 51 52 52 52 52 52 53 53 54 54 53 53 53 52 52 52 51 51 51 51 52 52 54 57 60 60 60 60 59 59 60 60 60 61 60 60 60 60 60 60 59 59 59 60 59 60 60 60 60 60 60 59 59 59 59 57 57 57 58 59 60 60 60 60 59 59 59 60 60 60 60 60 59 60
52 52 52 51 51 51 51 51 51 51 51 51 51 51 51 51 51 51 51 51 52 52 51 51 51 50 50 50 50 50 50 51 50 51 53 56 58 59 59 59 59 59 60 60 61 61 60 60 60 60 60 59 59 59 59 59 60 59 59 60 60 59 58 59 59 58 58 58 57 57 59 58 57 58 59 58 58 59 59 60 60 60 59 59 59
52 51 51 51 51 51 51 50 50 50 50 50 50 50 50 50 50 50 50 50 50 50 50 49 50 49 49 49 49 49 50 50 50 50 52 55 57 59 59 59 59 59 59 59 59 60 60 60 60 59 59 59 59 59 59 59 59 59 59 59 59 59 58 58 58 58 58 57 57 57 57 58 57 55 57 58 58 58 58 57 57 59 58 58 57
51 51 51 51 50 50 50 50 50 50 49 49 49 49 49 49 49 49 48 48 48 48 49 49 49 48 48 48 48 49 48 49 49 49 51 56 58 59 59 60 60 60 60 60 60 59 59 59 59 59 59 59 59 59 59 59 59 59 58 59 59 58 58 58 57 57 57 57 57 56 57 56 55 58 58 58 57 55 58 58 56 56 57 57 57
50 50 50 50 50 50 50 50 49 49 48 48 48 48 48 48 47 47 46 46 47 46 47 48 48 48 47 47 47 48 47 47 48 48 50 55 57 57 58 59 59 59 59 58 58 58 57 57 57 57 58 58 54 56 58 58 59 58 59 59 58 58 58 57 56 56 56 56 55 56 56 56 54 55 54 54 55 54 55 56 56 56 57 56 56
50 50 50 50 50 49 49 49 48 48 47 47 47 47 47 46 46 45 45 45 45 45 45 46 46 46 46 46 46 47 46 47 47 46 47 52 55 55 55 56 56 57 58 58 57 57 57 57 58 56 53 52 50 45 45 49 56 58 59 59 59 58 57 57 56 56 56 55 55 55 55 54 54 54 53 53 55 52 52 54 54 54 55 54 54
49 49 49 49 49 49 48 48 48 48 47 46 46 46 45 45 45 44 44 44 44 44 44 44 45 45 45 45 45 46 46 46 44 43 44 46 52 53 53 53 53 53 54 55 54 55 55 55 55 56 55 52 49 43 42 42 44 47 43 47 54 58 57 56 55 55 55 54 54 54 55 54 54 54 53 53 53 50 50 52 53 54 54 53 51
49 49 49 48 48 48 48 47 47 47 47 46 46 45 45 45 44 43 43 43 43 43 43 43 44 44 45 45 45 45 45 44 42 43 43 43 47 51 50 51 50 50 50 51 52 53 53 54 54 54 56 56 55 52 49 45 43 43 43 42 42 42 50 55 55 54 54 54 54 54 54 54 54 54 53 53 53 53 52 52 53 54 53 52 51
48 47 47 47 47 47 46 46 46 46 45 45 45 44 44 43 43 43 42 43 42 42 43 43 43 43 44 44 44 44 43 41 41 43 43 43 44 48 49 48 48 48 47 48 48 49 51 52 53 53 53 56 56 54 53 52 48 46 46 47 47 44 44 48 50 55 54 54 54 54 54 54 53 53 54 54 54 53 52 52 53 54 53 52 49
46 46 46 46 46 46 46 46 45 45 45 44 43 42 42 42 42 42 42 42 42 42 42 42 43 43 43 43 43 43 42 41 40 42 42 43 43 45 47 47 47 47 46 46 46 47 48 50 51 52 53 53 52 54 53 52 52 52 51 50 50 48 46 46 47 48 52 55 55 54 55 55 55 55 55 53 54 53 53 52 52 52 51 51 51
44 44 43 43 44 44 44 44 44 44 44 43 42 41 41 41 41 41 41 41 41 41 41 41 42 42 42 43 43 42 41 39 40 41 41 42 43 44 46 46 46 46 46 46 46 46 46 47 49 49 50 50 48 51 53 52 52 51 51 50 50 48 46 46 49 52 52 54 54 54 53 55 56 56 56 56 56 55 55 54 54 53 52 52 52
41 41 41 41 41 41 41 41 41 41 41 41 41 40 39 39 39 40 40 40 40 40 41 41 41 41 42 42 42 42 41 39 39 40 41 41 42 45 45 45 45 45 45 45 45 45 45 45 45 46 47 47 44 42 47 53 52 52 51 51 51 50 48 45 42 43 46 47 48 48 48 47 50 54 54 55 56 56 55 54 54 53 53 52 51
40 40 40 40 40 39 39 39 39 39 39 39 38 38 38 38 38 39 38 38 39 39 39 40 41 41 41 42 41 41 41 40 39 39 40 41 42 44 43 43 44 43 44 44 44 44 44 44 44 45 45 44 41 41 43 50 53 52 52 51 52 52 52 52 45 42 42 41 41 41 40 41 41 43 46 49 52 54 55 53 52 53 52 50 47
40 40 40 41 40 40 40 39 39 39 39 39 39 39 39 38 38 38 38 38 38 38 39 39 40 40 41 41 42 41 41 41 39 39 39 40 42 43 42 43 43 43 42 43 43 43 43 44 45 42 43 42 39 39 42 49 51 52 53 52 52 52 52 52 52 51 46 44 43 42 42 42 42 42 41 41 44 50 54 52 52 52 51 50 48
38 38 39 39 39 39 40 40 40 40 39 39 39 39 39 39 39 38 38 38 38 38 39 38 39 39 40 40 43 41 41 41 39 39 39 39 42 42 42 42 42 42 42 42 42 42 42 43 42 41 41 40 38 39 40 45 48 48 49 50 50 50 50 51 51 50 49 49 49 48 47 47 49 48 47 43 43 46 50 53 52 51 50 49 47
38 38 38 38 37 37 37 38 38 37 37 38 39 39 39 38 39 38 38 38 38 38 38 37 37 37 38 38 39 40 40 40 39 38 39 39 40 42 42 41 42 42 42 42 41 41 42 42 41 38 37 37 38 38 39 40 45 46 46 46 46 47 50 50 49 50 49 48 48 48 48 48 48 48 48 47 47 47 45 48 50 51 50 48 48
39 37 35 34 34 34 35 35 35 36 36 37 38 38 38 37 37 37 37 38 37 37 36 36 36 35 36 36 37 38 39 38 39 37 38 39 39 41 42 42 42 41 41 41 42 42 41 42 42 39 38 38 38 38 38 38 41 45 44 44 44 44 47 49 48 47 48 47 47 47 48 48 47 47 47 46 46 46 45 45 47 48 49 49 47
37 35 33 33 33 33 33 34 35 36 36 36 37 37 38 38 38 37 37 37 36 36 35 35 34 34 34 34 34 34 37 38 37 37 37 37 38 39 42 42 42 42 41 42 42 42 42 42 42 40 38 38 38 38 38 38 39 43 41 39 39 41 47 47 48 48 48 47 47 47 47 47 46 46 46 46 46 46 46 46 45 46 45 44 46
35 34 34 33 33 33 33 33 34 34 34 35 35 36 37 37 37 37 37 36 36 36 35 34 33 33 33 33 33 34 34 36 36 37 36 36 37 37 37 39 40 43 42 42 42 42 42 42 42 40 38 38 38 38 38 39 40 40 37 38 39 40 43 46 45 46 46 45 45 45 45 46 45 45 45 45 46 46 46 46 46 46 46 46 46
35 34 34 33 33 33 33 33 33 33 33 33 34 34 35 36 37 37 36 36 35 35 35 34 33 33 32 32 33 33 33 34 36 36 36 36 36 36 36 36 38 41 42 41 41 40 40 40 40 38 38 38 38 38 38 38 39 38 38 38 39 41 45 44 44 44 42 43 43 44 44 45 46 45 45 45 45 45 45 44 43 43 44 46 46
34 33 33 33 32 32 32 32 32 32 32 32 32 33 34 35 35 36 36 34 34 34 34 34 33 33 33 32 32 33 33 33 34 35 36 36 36 36 36 36 36 38 40 40 39 39 38 38 38 38 38 38 38 39 39 39 38 38 38 39 42 43 44 44 43 43 42 42 42 43 43 43 44 44 45 45 44 43 41 41 42 42 43 43 43
34 33 33 33 32 32 32 33 32 32 33 33 33 33 33 34 35 35 35 34 34 33 34 34 33 33 32 32 32 32 33 33 33 33 36 36 36 36 36 36 37 38 39 39 38 38 38 38 38 38 39 39 40 40 40 40 38 39 39 41 43 43 43 43 43 42 41 42 41 42 42 43 43 44 44 44 44 44 44 43 42 42 42 43 43
34 34 34 34 34 33 32 32 33 33 33 32 33 33 33 33 33 34 34 35 34 34 33 33 33 32 32 32 32 32 32 32 33 33 33 34 34 35 36 37 37 38 38 38 39 39 39 39 39 38 38 38 38 38 39 39 40 41 42 42 41 42 42 42 42 41 41 41 41 41 42 43 43 42 42 42 42 43 43 43 42 41 40 42 41
33 34 34 34 34 33 33 32 32 32 32 32 32 32 32 33 33 32 32 33 34 34 33 33 33 32 31 31 31 31 31 32 32 32 33 33 33 34 34 35 34 35 36 37 37 39 38 37 38 39 39 38 39 39 40 39 38 38 40 41 41 41 40 40 40 41 40 41 40 41 40 42 42 41 42 42 41 41 42 43 42 42 40 38 37
34 34 34 34 34 34 33 32 32 32 32 32 32 31 31 32 32 32 31 31 31 33 34 33 32 31 31 31 31 31 31 32 33 34 32 34 32 33 34 34 34 35 36 36 37 36 36 36 35 36 36 35 35 37 38 38 37 38 38 38 39 40 39 39 38 38 38 40 39 38 37 39 40 40 41 41 40 40 39 41 41 42 41 39 39
34 34 34 33 33 33 33 32 32 32 31 31 31 32 32 34 34 32 31 34 35 35 34 32 33 32 32 31 32 30 30 31 34 34 34 34 34 34 34 34 34 34 34 34 35 33 33 33 33 34 34 34 34 35 35 36 36 36 37 36 36 37 37 37 37 36 34 35 37 36 36 35 36 38 38 38 39 40 37 37 39 40 38 36 35
34 34 34 33 33 33 33 32 32 31 31 31 31 31 31 32 33 34 35 35 34 34 34 34 34 34 33 30 31 33 33 33 34 34 34 34 34 34 34 34 34 34 33 33 32 32 32 32 33 33 33 34 33 34 35 34 34 34 34 35 35 34 34 36 36 34 33 33 33 33 33 35 34 35 35 34 35 37 36 35 37 38 37 36 35
33 33 34 34 34 33 33 32 32 32 31 31 30 31 30 30 31 33 34 34 34 34 34 34 34 34 34 33 32 31 32 33 33 33 33 33 33 33 33 34 34 34 33 33 32 32 32 32 32 32 32 32 32 33 34 34 34 35 34 33 33 33 34 34 34 35 33 33 33 33 33 33 34 33 33 33 32 33 33 33 33 33 33 34 34
32 32 33 33 34 33 33 33 33 33 32 32 31 30 30 30 30 29 32 33 34 34 34 34 34 34 34 34 33 33 33 33 33 33 33 33 33 32 32 33 34 34 33 32 31 31 31 31 31 31 32 31 32 32 33 33 34 34 35 34 34 34 34 33 32 33 33 33 33 33 33 33 33 32 32 31 32 31 32 32 33 33 32 31 31
32 32 32 32 32 33 33 33 34 33 33 32 32 31 30 31 30 29 29 29 31 32 33 33 34 33 33 34 33 33 33 33 33 33 33 33 33 32 32 31 32 33 33 31 31 30 30 31 31 31 31 31 31 32 32 33 32 32 32 33 34 34 33 33 32 32 31 32 32 32 32 32 32 32 31 31 31 31 31 31 31 31 30 30 30
32 31 31 31 31 32 32 32 32 32 33 33 32 32 32 31 30 29 28 28 29 29 28 30 32 34 32 32 33 33 33 33 33 33 33 33 32 32 31 29 29 29 29 31 31 31 30 31 30 31 30 31 31 31 31 32 31 31 31 31 31 31 32 31 31 31 31 31 31 31 31 31 32 31 31 30 30 30 31 31 31 30 30 29 29
31 30 31 31 30 30 30 30 31 31 31 31 31 32 32 31 30 29 28 28 28 27 27 27 27 31 33 34 33 33 33 33 33 33 33 32 32 31 28 28 28 27 28 28 28 29 30 30 30 31 30 31 31 31 31 31 31 31 31 30 30 30 30 30 30 30 30 30 30 31 31 31 31 31 30 30 30 30 30 31 31 31 31 31 30
31 31 31 31 31 30 29 29 29 29 29 30 30 30 30 30 29 28 28 28 27 27 26 26 27 29 30 31 34 32 33 33 33 33 33 32 32 30 28 27 26 26 27 26 27 29 30 29 29 30 30 29 29 31 31 31 31 31 31 30 30 30 30 30 30 30 30 30 30 30 30 30 30 31 30 29 29 29 29 30 30 30 30 30 29
32 31 31 31 31 31 30 29 29 29 29 29 29 29 29 29 29 28 27 27 26 27 26 26 30 27 26 26 37 31 28 32 32 31 31 31 29 28 28 27 26 26 25 26 26 27 28 29 29 28 29 29 29 29 31 31 31 31 31 30 31 31 32 30 30 30 30 30 30 30 30 30 31 30 30 29 29 28 28 29 29 29 29 29 28
31 30 30 29 29 30 30 29 29 29 29 28 28 28 29 28 28 27 27 26 26 26 25 25 26 25 26 27 27 30 29 27 26 24 26 26 27 26 26 26 26 26 25 25 26 26 26 27 28 27 28 28 28 28 29 30 30 31 30 30 30 30 30 30 30 30 30 30 30 30 30 30 30 30 29 28 28 28 28 28 28 28 28 28 27
30 30 29 29 30 30 29 29 29 29 27 29 28 28 28 27 27 27 26 26 26 25 25 25 25 25 25 26 27 28 26 24 24 24 25 25 24 26 26 26 26 26 25 25 25 25 25 25 25 25 26 26 26 26 28 29 29 29 29 30 30 30 30 30 30 30 30 30 30 30 30 30 30 30 29 29 28 28 27 27 27 28 28 28 27
29 29 29 29 29 30 29 29 28 28 28 28 28 27 27 27 27 27 27 27 25 26 26 25 25 25 26 27 30 29 27 26 25 25 25 25 24 25 25 25 25 25 25 24 24 25 25 24 24 23 24 23 23 22 24 25 27 28 28 28 29 30 30 30 30 30 30 30 30 30 30 30 30 30 28 28 30 29 27 28 28 28 28 28 27
30 30 30 30 30 30 29 28 28 28 28 28 27 27 28 28 28 28 28 27 27 26 26 27 26 27 28 30 30 31 27 26 25 26 26 26 25 25 25 25 25 25 24 24 24 22 23 23 22 22 19 19 19 20 21 22 24 25 26 27 27 28 28 29 29 30 30 30 30 30 30 30 30 30 30 31 27 25 25 25 25 26 26 26 26
30 30 30 30 30 29 29 28 28 28 27 28 27 28 28 27 27 28 28 28 27 27 27 27 27 27 28 29 29 29 27 26 27 26 26 26 25 25 26 25 26 26 25 25 25 25 23 20 20 20 19 18 16 16 17 19 22 23 24 24 24 26 25 26 27 27 28 29 30 30 30 30 30 29 29 29 27 26 24 23 23 23 24 25 25
30 30 30 30 30 30 29 29 28 28 28 28 29 28 27 28 28 28 26 26 27 28 28 28 27 26 27 28 28 28 27 27 26 26 26 26 26 24 26 26 26 25 25 23 24 24 23 20 19 20 21 19 18 19 20 20 22 22 20 19 20 20 19 21 23 23 24 25 28 29 30 30 30 29 29 29 28 26 25 25 24 23 23 23 24
30 30 30 29 30 29 29 28 29 28 28 28 27 27 28 27 27 27 26 26 27 26 26 26 27 26 27 27 27 27 27 27 27 26 25 26 26 25 25 25 25 24 23 25 24 25 22 21 19 19 18 17 19 18 19 22 22 21 18 15 8 6 7 13 18 21 22 23 25 26 27 29 29 29 29 28 27 24 24 23 24 26 24 23 22
29 29 29 29 29 29 29 28 28 27 27 27 27 27 27 27 27 27 27 27 27 26 26 26 27 27 27 27 27 28 27 27 27 27 27 26 26 26 26 25 24 25 25 25 23 24 21 21 20 19 18 17 16 16 18 22 21 21 21 16 10 6 10 14 18 21 19 20 22 23 25 27 28 28 28 26 24 24 23 24 24 24 23 23 22
29 29 29 29 28 29 29 28 28 28 28 27 27 27 26 25 26 27 27 27 26 27 27 27 27 27 26 27 27 27 27 27 27 27 27 28 27 27 27 25 24 25 25 25 24 24 22 22 21 19 18 17 16 15 16 18 18 19 20 18 17 15 14 16 20 18 19 20 22 22 22 23 25 25 27 27 24 23 24 24 24 22 22 23 22
28 28 28 28 28 28 27 27 28 28 27 27 27 27 27 27 26 27 26 26 26 27 27 27 26 27 27 27 27 27 26 27 27 27 27 27 28 28 27 26 25 25 24 25 26 25 23 22 21 21 19 19 18 14 16 18 17 17 17 16 17 15 17 18 18 19 19 19 20 21 22 22 22 24 24 24 22 22 22 22 23 24 22 22 23
28 28 28 28 28 27 27 27 28 27 27 26 27 26 27 27 27 26 27 26 27 27 27 27 27 27 27 27 27 27 27 28 27 27 27 27 27 27 27 25 27 25 24 25 26 26 24 25 24 23 21 20 19 17 17 17 18 18 17 16 17 17 17 18 18 17 19 17 18 18 20 21 22 23 24 24 24 22 22 22 22 24 23 23 23
28 28 27 28 27 27 28 28 28 28 28 27 27 27 27 27 26 26 27 27 27 27 27 27 27 27 27 27 27 27 27 27 27 27 27 27 26 27 26 26 27 26 27 26 26 25 25 25 24 22 22 20 19 19 17 17 18 18 17 15 15 17 16 18 18 17 16 15 16 17 19 20 20 21 21 22 22 21 22 23 23 25 23 21 22
28 27 27 27 27 28 28 28 28 29 29 28 27 27 27 26 26 27 27 26 26 26 27 27 27 27 27 27 28 27 26 27 27 27 26 27 27 27 28 27 27 27 26 26 28 27 27 27 23 23 23 23 22 21 18 16 17 16 17 16 16 16 17 16 14 17 17 17 15 18 19 20 20 22 23 23 23 21 24 24 23 22 22 22 22